Austin, TX

1:46 AM CDT on September 28, 2016 (GMT -0500)
Austin Bergstrom International

Weather History for KAUS - December, 2012

Change the Weather History Date:

Friday, December 14, 2012

  Actual Average Record
Temperature  
Mean Temperature 64 °F 50 °F  
Max Temperature 72 °F 64 °F 83 °F (1995)
Min Temperature 56 °F 37 °F 22 °F (2004)
Degree Days  
Heating Degree Days 1 15  
Month to date heating degree days 107 195  
Since 1 July heating degree days 361 480  
Cooling Degree Days 0 0  
Month to date cooling degree days 34 5  
Year to date cooling degree days 3160 2746  
Growing Degree Days 13 (Base 50)    
Moisture  
Dew Point 54 °F    
Average Humidity 69    
Maximum Humidity 84    
Minimum Humidity 53    
Precipitation  
Precipitation 0.00 in 0.06 in 1.32 in (1967)
Month to date precipitation 0.01 0.99  
Year to date precipitation 34.31 33.42  
Snow  
Snow 0.00 in - - ()
Month to date snowfall 0.0  
Since 1 July snowfall 0.0  
Snow Depth 0.00 in    
Sea Level Pressure  
Sea Level Pressure 30.01 in    
Wind  
Wind Speed 12 mph (SSE)    
Max Wind Speed 23 mph    
Max Gust Speed 31 mph    
Visibility 10 miles    
Events      
T = Trace of Precipitation, MM = Missing Value Source: NWS Daily Summary

Daily Weather History Graph

Daily Weather History Graph

Search for Another Location

Airport or City:

Trip Planner

Search our weather history database for the weather conditions in past years. The results will help you decide how hot, cold, wet, or windy it might be!

Date:

Astronomy

Dec. 14, 2012 Rise Set
Actual Time 7:19 AM CST 5:32 PM CST
Civil Twilight 6:52 AM CST 5:58 PM CST
Nautical Twilight 6:22 AM CST 6:28 PM CST
Astronomical Twilight 5:53 AM CST 6:57 PM CST
Moon 8:28 AM CST (12/14) 7:21 PM CST (12/14)
Length of Visible Light 11h 05m
Length of Day
10h 12m
Waxing Crescent, 3% of the Moon is Illuminated
Dec 14
Waxing Crescent
Dec 19
First Quarter
Dec 28
Full
Jan 4
Last Quarter
Jan 11
New

Hourly Weather History & Observations

Time (CST) Temp. Dew Point Humidity Pressure Visibility Wind Dir Wind Speed Gust Speed Precip Events Conditions
12:53 AM 57.9 °F 44.1 °F 60% 30.17 in 10.0 mi SSE 8.1 mph - N/A   Overcast
1:53 AM 57.9 °F 44.1 °F 60% 30.15 in 10.0 mi SE 8.1 mph - N/A   Overcast
2:53 AM 57.0 °F 45.0 °F 64% 30.15 in 10.0 mi SE 4.6 mph - N/A   Overcast
3:37 AM 57.2 °F 44.6 °F 63% 30.14 in 10.0 mi ESE 4.6 mph - N/A   Overcast
3:53 AM 57.0 °F 46.0 °F 67% 30.14 in 10.0 mi ESE 3.5 mph - N/A   Overcast
4:53 AM 55.9 °F 45.0 °F 67% 30.12 in 10.0 mi ESE 5.8 mph - N/A   Overcast
5:53 AM 55.9 °F 45.0 °F 67% 30.12 in 10.0 mi ESE 3.5 mph - N/A   Overcast
6:53 AM 55.9 °F 45.0 °F 67% 30.12 in 10.0 mi SE 5.8 mph - N/A   Overcast
7:53 AM 55.9 °F 46.0 °F 69% 30.13 in 10.0 mi ESE 3.5 mph - N/A   Overcast
8:53 AM 57.0 °F 46.9 °F 69% 30.12 in 10.0 mi SE 6.9 mph - N/A   Overcast
9:53 AM 60.1 °F 48.9 °F 67% 30.12 in 10.0 mi SE 5.8 mph - N/A   Overcast
10:23 AM 62.6 °F 51.8 °F 68% 30.10 in 10.0 mi SE 10.4 mph - N/A   Overcast
10:39 AM 64.4 °F 51.8 °F 64% 30.10 in 10.0 mi SE 10.4 mph - N/A   Overcast
10:53 AM 64.9 °F 54.0 °F 68% 30.09 in 10.0 mi SE 12.7 mph - N/A   Overcast
11:53 AM 66.9 °F 57.0 °F 70% 30.04 in 10.0 mi SSE 15.0 mph 23.0 mph N/A   Overcast
12:53 PM 68.0 °F 57.2 °F 68% 30.00 in 10.0 mi SSE 17.3 mph 23.0 mph N/A   Overcast
1:53 PM 70.0 °F 59.0 °F 68% 29.94 in 10.0 mi South 16.1 mph 24.2 mph N/A   Overcast
2:53 PM 70.0 °F 60.1 °F 71% 29.91 in 10.0 mi SSE 13.8 mph 23.0 mph N/A   Overcast
3:53 PM 71.1 °F 60.1 °F 68% 29.87 in 10.0 mi SSE 19.6 mph 27.6 mph N/A   Overcast
4:53 PM 72.0 °F 60.1 °F 66% 29.88 in 10.0 mi South 15.0 mph 21.9 mph N/A   Overcast
5:53 PM 71.1 °F 61.0 °F 70% 29.87 in 10.0 mi SSE 13.8 mph - N/A   Overcast
6:53 PM 71.1 °F 62.1 °F 73% 29.87 in 10.0 mi South 19.6 mph 26.5 mph N/A   Overcast
7:31 PM 71.6 °F 62.6 °F 73% 29.89 in 10.0 mi SSE 16.1 mph 24.2 mph N/A   Overcast
7:53 PM 71.1 °F 63.0 °F 75% 29.88 in 10.0 mi South 16.1 mph 21.9 mph N/A   Overcast
8:53 PM 71.1 °F 63.0 °F 75% 29.88 in 10.0 mi South 18.4 mph 26.5 mph N/A   Overcast
9:53 PM 71.1 °F 64.0 °F 78% 29.89 in 10.0 mi South 17.3 mph 23.0 mph N/A   Overcast
10:53 PM 70.0 °F 64.0 °F 81% 29.89 in 10.0 mi South 12.7 mph 23.0 mph N/A   Overcast
11:53 PM 69.1 °F 64.9 °F 87% 29.88 in 10.0 mi South 15.0 mph - N/A   Mostly Cloudy